Location: Caltech
(34.1382°N, 118.1253°W)
Time: 07:55:40
(UTC-07:00)

TMSAT-1 - Visible Passes

Search period start: 30 July 2016 00:00
Search period end: 09 August 2016 00:00
Orbit: 808 x 812 km, 98.5° (Epoch: 29 July)

Date Brightness Start Highest point End Pass type
(mag) Time Alt. Az. Time Alt. Az. Time Alt. Az.
30 Jul 10.3 02:33:46 10° NNE 02:37:59 37° E 02:37:59 37° E visible
30 Jul 10.4 04:14:17 10° NNW 04:18:18 22° WNW 04:19:07 22° W visible
31 Jul 11.0 02:10:54 10° NE 02:14:03 21° E 02:14:03 21° E visible
31 Jul 9.8 03:50:06 10° N 03:54:56 37° WNW 03:55:12 37° WNW visible
01 Aug 11.6 01:48:58 10° ENE 01:50:07 12° E 01:50:07 12° E visible
01 Aug 9.2 03:26:14 10° N 03:31:16 63° WNW 03:31:16 63° WNW visible
02 Aug 9.3 03:02:38 10° NNE 03:07:21 67° NE 03:07:21 67° NE visible
02 Aug 11.1 04:45:24 10° NW 04:47:08 12° WNW 04:48:29 11° WNW visible
03 Aug 10.2 02:39:17 10° NNE 02:43:25 40° ENE 02:43:25 40° ENE visible
03 Aug 10.6 04:20:08 10° NNW 04:23:51 20° WNW 04:24:34 19° WNW visible
04 Aug 10.9 02:16:18 10° NE 02:19:29 24° ENE 02:19:29 24° ENE visible
04 Aug 10.0 03:55:50 10° N 04:00:31 32° WNW 04:00:37 32° WNW visible
05 Aug 11.6 01:54:01 10° ENE 01:55:33 14° ENE 01:55:33 14° ENE visible
05 Aug 9.4 03:31:54 10° N 03:36:41 54° NW 03:36:41 54° NW visible
06 Aug 9.4 03:08:14 10° NNE 03:12:45 65° NNE 03:12:45 65° NNE visible
07 Aug 10.1 02:44:50 10° NNE 02:48:49 43° ENE 02:48:49 43° ENE visible
07 Aug 10.7 04:26:02 10° NNW 04:29:25 17° WNW 04:29:58 17° WNW visible
08 Aug 10.9 02:21:44 10° NE 02:24:53 26° ENE 02:24:53 26° ENE visible
08 Aug 10.2 04:01:36 10° N 04:06:02 29° WNW 04:06:02 29° WNW visible
